Location: Newark
(47.3150°N, 5.1150°E)
Time: 22:50:56
(UTC+00:00)

AO-7 - Pass Details

Date: 22 December 2019
Orbit: 1440 x 1458 km, 101.8° (Epoch: 20 January)

Event Time Altitude Azimuth Distance (km) Brightness Sun altitude
Rises 01:16:35 0° 33° (NNE) 4,568 ? -59.0°
Reaches altitude 10° 01:22:26 10° 65° (ENE) 3,586 ? -58.3°
Maximum altitude 01:24:50 11° 82° (E) 3,477 ? -58.0°
Enters shadow 01:25:58 11° 91° (E) 3,500 ? -57.8°
